sat.trackr.live / text

‹ back to catalog

FM-6

NORAD 39360 · 2013-058A

PAYLOAD ACTIVE UNKNOWN

§ Identity

Operator
Country
US
Launch date
2013-10-25
Launch site
TYMSC
Launch vehicle
Mass (kg)
RCS (m²)
11.32

Purposes: comms

External: N2YO · Heavens-Above · Gunter

§ Orbital elements

Epoch: 2026-05-25T03:42:38.615040Z

Period
1,436.12 min
Inclination
0.0041°
Eccentricity
0.0001973
Mean motion
1.00269962 rev/d
Perigee alt
35,778.8 km
Apogee alt
35,795.4 km
Semi-major
42,165.2 km
B*
0.0000e+0
RAAN
33.1254°
Arg perigee
104.3313°
Mean anomaly
44.5852°
Rev number
4,584

§ Raw data

FM-61 39360U 13058A   26145.15461360 -.00000018  00000+0  00000+0 0  99902 39360   0.0041  33.1254 0001973 104.3313  44.5852  1.00269962 45845

JSON: /api/v1/satellites/39360 · /tle

For live sub-satellite position, see the globe view (requires WebGL).

§ Visibility from observer

Set your observer location to see the next 7 days of passes ≥ 10°. The values pass through the URL so the page stays shareable.

No JS? Fill the form by hand. The geolocation button needs JavaScript.